Aérodrome :
LOGIN :

S'inscrire | Disclaimer

   EN    FR    IT 

 










Légende :    VFR   VFR Marginal   IFR   IFR Intensif   IFR Très Intensif
Visi : 
Plafond : 
>= 8 km
>= 3000ft
5 à 8 km
1000 à 3000 ft
1500m à 5 km
500 à 1000 ft
800 à 1500m
200 à 500 ft
< 800m
< 200 ft
Symboles :   Orages  Brouillard  Fortes neiges  Fortes précipitations  Vent > 20 kt
SIGMETs :   Divers  Orages  Givrage  Turbulence  Onde Orograph.  Cendres Volcan.







- Altitude de l'aérodrome : 1249 ft


ETSN - Neuburg AB

DERNIER METAR :
  • 211420Z VRB02KT 9999 -RA FEW007 SCT038 BKN050 19/17 Q1013 BLU

METARs EXPIRÉS :
  • 211320Z VRB02KT 9999 -RA FEW007 SCT020 BKN040 19/17 Q1013 BLU
  • 211220Z 21002KT 9999 -RA SCT006 SCT045 BKN100 19/17 Q1013 BLU

TAF TAF ETSN
Valide du 21 à 14h jusqu'au 21 à 23h UTC


211300Z 2114/2123 22005KT 9999 -RA SCT020 BKN080
TEMPO 2114/2121 22015KT 4000 SHRA BKN040CB BKN080
PROB30 2114/2119 24015G25KT 2000 TSRA BKN005 BKN030CB BY ETGL
Pas de NOTAMs connus pour ce terrain.



MET'MAP, la Météo Aéronautique d'un coup d'oeil ! - Copyright ORBIFLY Décembre 2007 - Disclaimer

ORBIFLY MET'MAP TEAM :

Programmation & Développement : Alexandra Zaïnal
Conception & Développement : Baudouin d'Aumeries
Co-Programmation & Développement : Marc-Olivier Méhu
Soutien technique & logistique : Manuel Goepfert

Contact : metmap@orbifly.com




SOURCES & CREDITS :

   NOAA